Flag for Switzerland Weather past 2 weeks in Lucerne, Lucerne, Switzerland

Now
66 °F

Mild.


Feels Like: 66 °F
Forecast: 55 / 77 °F
Wind: 1 mph from Northeast

Location: Giswil

Current Time: Aug 28, 2014 at 12:00:30 PM

Latest Report: Aug 28, 2014 at 11:00 AM


Visibility: N/A

Pressure: 30.06 "Hg

Humidity: 73%

Dew point: 57 °F

Location of LucerneLocation

Historic Weather in Lucerne — Graph

°F

Lucerne temperature yesterday

Maximum temperature yesterday: 67 °F (at 3:00 PM)
Minimum temperature yesterday: 55 °F (at 1:00 AM)
Average temperature yesterday: 61 °F

Past Weeks' High & Low Weather Summary

 TemperatureHumidityPressure
High74 °F (Aug 18, 3:00 PM)99% (Aug 15, 2:00 AM)30.25 "Hg (Aug 15, 2:00 AM)
Low43 °F (Aug 17, 6:00 AM)47% (Aug 17, 3:00 PM)29.69 "Hg (Aug 13, 10:00 AM)
Average58 °F83%30.03 "Hg
* Reported Aug 13 10:00 AM — Aug 28 10:00 AM, Lucerne, Weather by CustomWeather, © 2014

Note: Actual official high and low records may vary slightly from our data, if they occured in-between our weather recording intervals... More about our weather records

Advertising

Lucerne weather history for previous 24 hours

 ConditionsComfort  
Time TempWeatherWind HumidityBarometerVisibility
10:00 AM
Aug 28
62 °FMild.2 mph82%30.09 "HgN/A
9:00 AM59 °FCool.1 mph97%30.09 "HgN/A
8:00 AM55 °FCool.1 mph99%30.11 "HgN/A
7:00 AM57 °FCool.2 mph99%30.09 "HgN/A
6:00 AM57 °FCool.1 mph99%30.09 "HgN/A
5:00 AM58 °FCool.1 mph98%30.09 "HgN/A
4:00 AM57 °FCool.1 mph98%30.09 "HgN/A
3:00 AM57 °FCool.1 mph99%30.09 "HgN/A
2:00 AM57 °FCool.1 mph99%30.09 "HgN/A
1:00 AM56 °FCool.1 mph98%30.09 "HgN/A
12:00 AM56 °FCool.2 mph98%30.09 "HgN/A
11:00 PM
Aug 27
59 °FCool.1 mph97%30.08 "HgN/A
10:00 PM59 °FCool.2 mph97%30.07 "HgN/A
9:00 PM61 °FCool.No wind93%30.05 "HgN/A
8:00 PM63 °FMild.2 mph84%30.04 "HgN/A
7:00 PM65 °FMild.1 mph84%30.03 "HgN/A
6:00 PM66 °FMild.1 mph73%30.01 "HgN/A
4:00 PM67 °FMild.3 mph67%30.01 "HgN/A
3:00 PM67 °FMild.5 mph68%30.00 "HgN/A
2:00 PM67 °FMild.3 mph72%30.00 "HgN/A
1:00 PM65 °FMild.1 mph80%30.01 "HgN/A
12:00 PM63 °FMild.3 mph84%30.02 "HgN/A
Weather by CustomWeather, © 2014

See weather overviewHow to use our weather pages